This demonstration page uses our WeatherBlox Daily Observations layout. Learn more.

Hourly Observations for August 8, 2015

Temp ( °F °C ) Dew Point ( °F °C ) Humidity (%) Winds ( mph kmh ) Pressure ( in mb ) Visibility ( mi km ) Precip ( " mm )
12:15 am 00:15 Mostly Cloudy with Thunderstorms 68 20 66 19 94 94 Calm 29.88 1012 7 11.26538 0.05 1.27
12:35 am 00:35 Mostly Cloudy with Nearby Thunderstorms 68 20.2 66 19 93 93 Calm 29.88 1012 7 11.26538 0.08 2.032
12:55 am 00:55 Mostly Cloudy with Light Rain 68 20 66 19 94 94 N 6 9 29.88 1012 10 16.0934 0.08 2.032
1:15 am 01:15 Mostly Cloudy 65 18.5 63 17.2 92 92 NE 9 15 29.91 1013 10 16.0934 0.01 0.254
1:35 am 01:35 Partly Cloudy 64 18 63 17 94 94 NE 10 17 29.88 1012 10 16.0934 0.02 0.508
1:55 am 01:55 Partly Cloudy with Light Rain 64 18 63 17 94 94 Calm 29.91 1013 10 16.0934 0.02 0.508
2:15 am 02:15 Cloudy with Rain 65 18.2 63 17.2 94 94 E 7 11 29.91 1013 7 11.26538 0.03 0.762
2:35 am 02:35 Cloudy with Thunderstorms 65 18.5 64 17.6 95 95 SE 8 13 29.91 1013 5 8.0467 0.1 2.54
2:55 am 02:55 Cloudy with Light Thunderstorms 66 19 64 18 94 94 NE 3 6 29.85 1011 10 16.0934 0.12 3.048
3:15 am 03:15 Cloudy with Thunderstorms 66 19 64 17.7 92 92 NE 5 7 29.85 1011 10 16.0934 0.02 0.508
3:35 am 03:35 Cloudy with Rain 66 19 64 17.7 92 92 E 12 19 29.83 1010 7 11.26538 0.08 2.032
3:55 am 03:55 Mostly Cloudy with Light Rain 66 18.9 64 17.8 93 93 E 16 26 29.77 1008 10 16.0934 0.13 3.302
4:15 am 04:15 Partly Cloudy 66 19 64 17.7 92 92 E 12 19 29.74 1007 10 16.0934 0 0
4:35 am 04:35 Partly Cloudy 66 19 64 17.6 92 92 SE 9 15 29.74 1007 10 16.0934 0 0
4:55 am 04:55 Clear 66 18.8 64 17.6 93 93 SE 12 19 29.74 1007 10 16.0934 0 0
5:15 am 05:15 Clear 66 19 64 17.7 92 92 ESE 12 19 29.74 1007 10 16.0934 0 0
5:35 am 05:35 Clear 66 19.1 64 18 93 93 ESE 12 19 29.74 1007 10 16.0934 0 0
5:55 am 05:55 Partly Cloudy 66 19 64 17.8 93 93 SE 12 19 29.77 1008 10 16.0934 0 0
6:15 am 06:15 Mostly Cloudy 66 19 64 17.8 93 93 SSE 3 6 29.77 1008 10 16.0934 0 0
6:35 am 06:35 Partly Cloudy 66 19 64 17.7 92 92 Calm 29.77 1008 10 16.0934 0 0
6:55 am 06:55 Sunny 65 18.6 64 17.5 93 93 Calm 29.8 1009 10 16.0934 0 0
7:15 am 07:15 Mostly Cloudy 66 18.8 64 17.8 94 94 Calm 29.8 1009 10 16.0934 0 0
7:35 am 07:35 Cloudy 66 19 64 18 94 94 Calm 29.8 1009 10 16.0934 0 0
7:55 am 07:55 Mostly Cloudy 67 19.2 65 18.2 94 94 Calm 29.8 1009 10 16.0934 0 0
8:15 am 08:15 Sunny 67 19.3 65 18.2 93 93 NW 5 7 29.83 1010 10 16.0934 0 0
8:35 am 08:35 Partly Cloudy 68 20.1 66 19 93 93 NW 5 7 29.83 1010 10 16.0934 0 0
8:55 am 08:55 Partly Cloudy 69 20.6 65 18.6 88 88 NW 5 7 29.83 1010 10 16.0934 0 0
9:15 am 09:15 Mostly Cloudy 69 20.7 66 18.8 89 89 NNW 3 6 29.83 1010 10 16.0934 0 0
9:35 am 09:35 Partly Cloudy 70 21.3 66 18.8 86 86 N 6 9 29.83 1010 10 16.0934 0 0
9:55 am 09:55 Partly Cloudy 72 22.1 66 18.9 82 82 NNW 6 9 29.83 1010 10 16.0934 0 0
10:15 am 10:15 Partly Cloudy 72 22.2 66 18.7 81 81 NNE 3 6 29.83 1010 10 16.0934 0 0
10:35 am 10:35 Partly Cloudy 74 23.5 66 18.8 75 75 Calm 29.8 1009 10 16.0934 0 0
10:55 am 10:55 Mostly Cloudy 73 23 65 18.3 75 75 Calm 29.8 1009 10 16.0934 0 0
11:15 am 11:15 Mostly Cloudy 75 23.8 66 18.7 73 73 Calm 29.8 1009 10 16.0934 0 0
11:35 am 11:35 Partly Cloudy 76 24.2 66 18.9 72 72 E 3 6 29.8 1009 10 16.0934 0 0
11:55 am 11:55 Partly Cloudy 77 25 67 19.2 70 70 E 5 7 29.8 1009 10 16.0934 0 0
12:15 pm 12:15 Partly Cloudy 78 25.5 65 18.2 64 64 SSE 8 13 29.77 1008 10 16.0934 0 0
12:35 pm 12:35 Partly Cloudy 78 25.6 66 18.7 66 66 SSE 9 15 29.77 1008 10 16.0934 0 0
12:55 pm 12:55 Partly Cloudy 78 25.8 65 18.6 65 65 Calm 29.77 1008 10 16.0934 0 0
1:15 pm 13:15 Mostly Cloudy 78 25.6 68 19.8 70 70 ESE 3 6 29.74 1007 10 16.0934 0 0
1:35 pm 13:35 Cloudy 79 26 66 19.1 66 66 SSE 6 9 29.74 1007 10 16.0934 0 0
1:55 pm 13:55 Cloudy 80 26.4 67 19.2 65 65 SSE 7 11 29.74 1007 10 16.0934 0 0
2:15 pm 14:15 Cloudy 79 26.2 67 19.4 66 66 ESE 5 7 29.77 1008 10 16.0934 0 0
2:35 pm 14:35 Cloudy 80 26.5 67 19.2 64 64 SSE 3 6 29.77 1008 10 16.0934 0 0
2:55 pm 14:55 Cloudy 80 26.5 67 19.7 66 66 ESE 6 9 29.74 1007 10 16.0934 0 0
3:15 pm 15:15 Cloudy 80 26.5 67 19.7 66 66 E 3 6 29.74 1007 10 16.0934 0 0
3:35 pm 15:35 Cloudy 80 26.7 67 19.7 66 66 E 5 7 29.74 1007 10 16.0934 0 0
3:55 pm 15:55 Mostly Cloudy 81 27 68 20 66 66 Calm 29.74 1007 10 16.0934 0 0
4:15 pm 16:15 Mostly Cloudy 80 26.8 68 19.8 66 66 ESE 5 7 29.74 1007 10 16.0934 0 0
4:35 pm 16:35 Mostly Cloudy 80 26.9 69 20.3 67 67 NE 6 9 29.74 1007 10 16.0934 0 0
4:55 pm 16:55 Partly Cloudy 80 26.9 69 20.5 68 68 NNE 3 6 29.74 1007 10 16.0934 0 0
5:15 pm 17:15 Sunny 81 27.1 69 20.8 69 69 NE 7 11 29.71 1006 10 16.0934 0 0
5:35 pm 17:35 Partly Cloudy 80 26.6 69 20.8 71 71 NE 8 13 29.71 1006 10 16.0934 0 0
5:55 pm 17:55 Partly Cloudy 79 26.3 69 20.8 72 72 ENE 9 15 29.71 1006 10 16.0934 0 0
6:15 pm 18:15 Sunny 80 26.5 70 21 72 72 ENE 9 15 29.71 1006 10 16.0934 0 0
6:35 pm 18:35 Sunny 80 26.6 70 21 71 71 E 10 17 29.74 1007 10 16.0934 0 0
6:55 pm 18:55 Sunny 80 26.5 70 20.9 71 71 E 10 17 29.74 1007 10 16.0934 0 0
7:15 pm 19:15 Sunny 79 26.1 70 20.9 73 73 E 9 15 29.74 1007 10 16.0934 0 0
7:35 pm 19:35 Partly Cloudy 78 25.4 70 21.1 77 77 E 7 11 29.77 1008 10 16.0934 0 0
7:55 pm 19:55 Partly Cloudy 77 25 71 21.4 80 80 E 5 7 29.77 1008 10 16.0934 0 0
8:15 pm 20:15 Sunny 76 24.5 71 21.5 83 83 E 6 9 29.77 1008 10 16.0934 0 0
8:35 pm 20:35 Partly Cloudy 76 24.2 71 21.5 85 85 ENE 5 7 29.77 1008 10 16.0934 0 0
8:55 pm 20:55 Partly Cloudy 74 23.1 70 21.3 90 90 NE 5 7 29.77 1008 10 16.0934 0 0
9:15 pm 21:15 Clear 73 23 70 21.1 89 89 ENE 5 7 29.74 1007 10 16.0934 0 0
9:35 pm 21:35 Clear 73 22.6 70 21.1 91 91 NE 3 6 29.77 1008 10 16.0934 0 0
9:55 pm 21:55 Clear 73 22.5 70 21 91 91 NNE 3 6 29.77 1008 10 16.0934 0 0
10:15 pm 22:15 Clear 72 22.1 70 20.9 93 93 NNE 3 6 29.77 1008 10 16.0934 0 0
10:35 pm 22:35 Clear 72 22.4 70 21 92 92 Calm 29.83 1010 10 16.0934 0 0
10:55 pm 22:55 Partly Cloudy 72 22.3 69 20.8 91 91 Calm 29.83 1010 10 16.0934 0 0
11:15 pm 23:15 Partly Cloudy 72 22 69 20.7 92 92 Calm 29.83 1010 10 16.0934 0 0
11:35 pm 23:35 Clear 72 22 69 20.8 93 93 Calm 29.83 1010 7 11.26538 0 0
11:55 pm 23:55 Partly Cloudy 71 21.7 69 20.6 94 94 Calm 29.83 1010 7 11.26538 0 0

Powered by AerisWeather